Location: ??
(34.9170°N, 135.5016°E)
Time: 18:08:19
(UTC+00:00)

Nadezhda 4 Rocket - Pass Details

Date: 29 October 2020
Orbit: 951 x 991 km, 82.9° (Epoch: 29 November)

Event Time Altitude Azimuth Distance (km) Brightness Sun altitude
Rises 18:58:51 0° 186° (S) 3,607 6.9 -28.8°
Reaches altitude 10° 19:01:19 10° 186° (S) 2,665 6.2 -28.3°
Maximum altitude 19:07:25 86° 274° (W) 959 3.8 -27.1°
Drops below altitude 10° 19:13:35 10° 5° (N) 2,691 6.4 -25.8°
Sets 19:16:05 0° 6° (N) 3,645 7.1 -25.3°
